| time (UTC) | temp F | wind direction | speed MPH | gust MPH | rain 1hr in | rain 24hr in | rain mn in | humidity % | barometer mb |
| 20260503032517 | 41 | 241 | 0.0 | 1.0 | 0.00 | 0.00 | 0.00 | 71 | 1016.1 |
| 20260503032100 | 41 | 241 | 0.0 | 0.0 | 0.00 | 0.00 | 0.00 | 71 | 1016.2 |
| 20260503031541 | 41 | 241 | 0.0 | 2.0 | 0.00 | 0.00 | 0.00 | 71 | 1016.3 |
| 20260503031022 | 41 | 241 | 0.0 | 2.0 | 0.00 | 0.00 | 0.00 | 70 | 1016.2 |
| 20260503030501 | 42 | 241 | 0.0 | 1.0 | 0.00 | 0.00 | 0.00 | 69 | 1016.3 |
| 20260503030027 | 42 | 241 | 0.0 | 1.0 | 0.00 | 0.00 | 0.00 | 69 | 1016.2 |
| 20260503025505 | 42 | 241 | 0.0 | 2.0 | 0.00 | 0.00 | 0.00 | 68 | 1016.3 |
| 20260503025049 | 42 | 241 | 0.0 | 2.0 | 0.00 | 0.00 | 0.00 | 68 | 1016.3 |
| 20260503024529 | 42 | 241 | 0.0 | 1.0 | 0.00 | 0.00 | 0.00 | 68 | 1016.2 |
| 20260503024010 | 42 | 241 | 0.0 | 1.0 | 0.00 | 0.00 | 0.00 | 67 | 1016.2 |
| 20260503023558 | 42 | 241 | 0.0 | 2.0 | 0.00 | 0.00 | 0.00 | 67 | 1016.2 |
| 20260503023044 | 42 | 241 | 0.0 | 2.0 | 0.00 | 0.00 | 0.00 | 67 | 1016.3 |
| 20260503022513 | 43 | 241 | 0.0 | 2.0 | 0.00 | 0.00 | 0.00 | 68 | 1016.4 |
| 20260503022057 | 43 | 241 | 0.0 | 2.0 | 0.00 | 0.00 | 0.00 | 68 | 1016.4 |
| 20260503021538 | 43 | 241 | 0.0 | 2.0 | 0.00 | 0.00 | 0.00 | 67 | 1016.5 |
| 20260503021018 | 43 | 241 | 0.0 | 4.0 | 0.00 | 0.00 | 0.00 | 67 | 1016.5 |
| 20260503020603 | 43 | 241 | 1.0 | 4.0 | 0.00 | 0.00 | 0.00 | 67 | 1016.5 |
| 20260503020042 | 43 | 241 | 0.0 | 4.0 | 0.00 | 0.00 | 0.00 | 67 | 1016.5 |
| 20260503015507 | 43 | 241 | 0.0 | 2.0 | 0.00 | 0.00 | 0.00 | 67 | 1016.5 |
| 20260503015048 | 43 | 241 | 0.0 | 2.0 | 0.00 | 0.00 | 0.00 | 67 | 1016.5 |
| 20260503014527 | 42 | 241 | 0.0 | 2.0 | 0.00 | 0.00 | 0.00 | 67 | 1016.5 |
| 20260503014007 | 42 | 241 | 0.0 | 2.0 | 0.00 | 0.00 | 0.00 | 67 | 1016.5 |
| 20260503013551 | 42 | 241 | 0.0 | 2.0 | 0.00 | 0.00 | 0.00 | 67 | 1016.5 |
| 20260503013032 | 42 | 241 | 0.0 | 2.0 | 0.00 | 0.00 | 0.00 | 67 | 1016.5 |
| 20260503012512 | 42 | 241 | 0.0 | 4.0 | 0.00 | 0.00 | 0.00 | 67 | 1016.4 |
| 20260503012055 | 43 | 241 | 0.0 | 4.0 | 0.00 | 0.00 | 0.00 | 66 | 1016.4 |
| 20260503011549 | 43 | 241 | 0.0 | 2.0 | 0.00 | 0.00 | 0.00 | 66 | 1016.4 |
| 20260503011019 | 43 | 241 | 0.0 | 4.0 | 0.00 | 0.00 | 0.00 | 65 | 1016.4 |
| 20260503010559 | 43 | 241 | 0.0 | 5.0 | 0.00 | 0.00 | 0.00 | 65 | 1016.4 |
| 20260503010029 | 43 | 241 | 2.0 | 5.0 | 0.00 | 0.00 | 0.00 | 64 | 1016.4 |
| 20260503005606 | 43 | 237 | 0.0 | 5.0 | 0.00 | 0.00 | 0.00 | 64 | 1016.5 |
| 20260503005045 | 43 | 239 | 1.0 | 4.0 | 0.00 | 0.00 | 0.00 | 63 | 1016.5 |
| 20260503004524 | 43 | 239 | 0.0 | 4.0 | 0.00 | 0.00 | 0.00 | 62 | 1016.4 |
| 20260503004007 | 43 | 239 | 0.0 | 4.0 | 0.00 | 0.00 | 0.00 | 63 | 1016.4 |
| 20260503003548 | 43 | 239 | 0.0 | 4.0 | 0.00 | 0.00 | 0.00 | 64 | 1016.3 |
| 20260503003028 | 43 | 239 | 0.0 | 4.0 | 0.00 | 0.00 | 0.00 | 64 | 1016.3 |
| 20260503002514 | 43 | 239 | 0.0 | 5.0 | 0.00 | 0.00 | 0.00 | 64 | 1016.3 |
| 20260503002052 | 43 | 239 | 0.0 | 8.0 | 0.00 | 0.00 | 0.00 | 65 | 1016.2 |
| 20260503001533 | 43 | 237 | 4.0 | 9.0 | 0.00 | 0.00 | 0.00 | 64 | 1016.2 |
| 20260503001013 | 44 | 239 | 5.0 | 9.0 | 0.00 | 0.00 | 0.00 | 66 | 1016.2 |
| 20260503000556 | 44 | 254 | 2.0 | 6.0 | 0.00 | 0.00 | 0.00 | 66 | 1016.2 |
| 20260503000049 | 44 | 250 | 2.0 | 6.0 | 0.00 | 0.00 | 0.00 | 66 | 1016.2 |
| 20260502235603 | 44 | 275 | 1.0 | 6.0 | 0.00 | 0.00 | 0.00 | 66 | 1016.2 |
| 20260502235039 | 44 | 269 | 0.0 | 5.0 | 0.00 | 0.00 | 0.00 | 66 | 1016.2 |
| 20260502234519 | 44 | 269 | 2.0 | 5.0 | 0.00 | 0.00 | 0.00 | 66 | 1016.1 |
| 20260502234103 | 44 | 267 | 0.0 | 5.0 | 0.00 | 0.00 | 0.00 | 65 | 1016.2 |
| 20260502233544 | 44 | 267 | 1.0 | 5.0 | 0.00 | 0.00 | 0.00 | 66 | 1016.1 |
| 20260502233023 | 44 | 269 | 0.0 | 6.0 | 0.00 | 0.00 | 0.00 | 66 | 1016.2 |
| 20260502232504 | 44 | 268 | 1.0 | 6.0 | 0.00 | 0.00 | 0.00 | 65 | 1016.1 |
| 20260502232048 | 44 | 262 | 2.0 | 5.0 | 0.00 | 0.00 | 0.00 | 64 | 1016.1 |
| 20260502231527 | 44 | 261 | 1.0 | 6.0 | 0.00 | 0.00 | 0.00 | 64 | 1016.1 |
| 20260502231007 | 45 | 217 | 0.0 | 7.0 | 0.00 | 0.00 | 0.00 | 63 | 1016.0 |
| 20260502230552 | 45 | 256 | 1.0 | 5.0 | 0.00 | 0.00 | 0.00 | 63 | 1016.0 |
| 20260502230013 | 45 | 268 | 1.0 | 5.0 | 0.00 | 0.00 | 0.00 | 62 | 1016.0 |
| 20260502225556 | 45 | 268 | 1.0 | 5.0 | 0.00 | 0.00 | 0.00 | 62 | 1016.0 |
| 20260502225037 | 45 | 271 | 1.0 | 7.0 | 0.00 | 0.00 | 0.00 | 61 | 1016.0 |
| 20260502224517 | 45 | 326 | 0.0 | 9.0 | 0.00 | 0.00 | 0.00 | 59 | 1016.0 |
| 20260502224101 | 45 | 277 | 3.0 | 9.0 | 0.00 | 0.00 | 0.00 | 59 | 1016.0 |
| 20260502223540 | 45 | 278 | 1.0 | 7.0 | 0.00 | 0.00 | 0.00 | 58 | 1016.0 |
| 20260502223022 | 45 | 331 | 1.0 | 7.0 | 0.00 | 0.00 | 0.00 | 58 | 1015.9 |
| 20260502222501 | 45 | 296 | 1.0 | 9.0 | 0.00 | 0.00 | 0.00 | 57 | 1015.9 |
| 20260502222048 | 45 | 299 | 4.0 | 9.0 | 0.00 | 0.00 | 0.00 | 56 | 1015.9 |
| 20260502221524 | 45 | 295 | 1.0 | 7.0 | 0.00 | 0.00 | 0.00 | 57 | 1015.9 |
| 20260502221004 | 45 | 237 | 3.0 | 7.0 | 0.00 | 0.00 | 0.00 | 56 | 1015.8 |
| 20260502220548 | 45 | 329 | 0.0 | 8.0 | 0.00 | 0.00 | 0.00 | 57 | 1015.9 |
| 20260502220030 | 45 | 290 | 3.0 | 8.0 | 0.00 | 0.00 | 0.00 | 57 | 1015.9 |
| 20260502215555 | 45 | 227 | 1.0 | 6.0 | 0.00 | 0.00 | 0.00 | 57 | 1015.9 |
| 20260502215033 | 46 | 277 | 3.0 | 6.0 | 0.00 | 0.00 | 0.00 | 57 | 1015.9 |
| 20260502214513 | 46 | 229 | 3.0 | 6.0 | 0.00 | 0.00 | 0.00 | 56 | 1015.9 |
| 20260502214057 | 46 | 264 | 0.0 | 7.0 | 0.00 | 0.00 | 0.00 | 57 | 1015.8 |
| 20260502213537 | 46 | 281 | 2.0 | 7.0 | 0.00 | 0.00 | 0.00 | 56 | 1015.8 |
| 20260502213020 | 46 | 264 | 0.0 | 6.0 | 0.00 | 0.00 | 0.00 | 57 | 1015.8 |
| 20260502212601 | 46 | 250 | 1.0 | 7.0 | 0.00 | 0.00 | 0.00 | 55 | 1015.8 |
| 20260502212041 | 46 | 217 | 3.0 | 7.0 | 0.00 | 0.00 | 0.00 | 55 | 1015.7 |
| 20260502211522 | 46 | 296 | 1.0 | 7.0 | 0.00 | 0.00 | 0.00 | 58 | 1015.8 |
| 20260502211004 | 46 | 266 | 2.0 | 8.0 | 0.00 | 0.00 | 0.00 | 59 | 1015.6 |
| 20260502210550 | 46 | 279 | 2.0 | 9.0 | 0.00 | 0.00 | 0.00 | 59 | 1015.7 |
| 20260502210008 | 46 | 227 | 5.0 | 9.0 | 0.00 | 0.00 | 0.00 | 59 | 1015.6 |
| 20260502205551 | 46 | 235 | 2.0 | 8.0 | 0.00 | 0.00 | 0.00 | 62 | 1015.7 |
| 20260502205031 | 46 | 274 | 3.0 | 11.0 | 0.00 | 0.00 | 0.00 | 61 | 1015.8 |
| 20260502204520 | 46 | 253 | 5.0 | 14.0 | 0.00 | 0.00 | 0.00 | 61 | 1015.9 |
| 20260502204055 | 46 | 242 | 5.0 | 14.0 | 0.00 | 0.00 | 0.00 | 61 | 1015.8 |
| 20260502203535 | 47 | 261 | 3.0 | 8.0 | 0.00 | 0.00 | 0.00 | 59 | 1015.8 |
| 20260502203018 | 47 | 235 | 2.0 | 9.0 | 0.00 | 0.00 | 0.00 | 56 | 1015.8 |
| 20260502202559 | 47 | 264 | 3.0 | 6.0 | 0.00 | 0.00 | 0.00 | 55 | 1015.8 |
| 20260502202039 | 47 | 314 | 0.0 | 8.0 | 0.00 | 0.00 | 0.00 | 54 | 1015.8 |
| 20260502201518 | 47 | 333 | 2.0 | 6.0 | 0.00 | 0.00 | 0.00 | 54 | 1016.0 |
| 20260502201101 | 47 | 301 | 1.0 | 7.0 | 0.00 | 0.00 | 0.00 | 56 | 1016.0 |
| 20260502200540 | 47 | 200 | 1.0 | 11.0 | 0.00 | 0.00 | 0.00 | 55 | 1016.1 |
| 20260502200003 | 47 | 302 | 4.0 | 11.0 | 0.00 | 0.00 | 0.00 | 55 | 1016.2 |
| 20260502195546 | 47 | 316 | 4.0 | 9.0 | 0.00 | 0.00 | 0.00 | 55 | 1016.1 |
| 20260502195026 | 47 | 276 | 1.0 | 9.0 | 0.00 | 0.00 | 0.00 | 56 | 1016.1 |
| 20260502194506 | 47 | 274 | 1.0 | 8.0 | 0.00 | 0.00 | 0.00 | 55 | 1016.2 |
| 20260502194050 | 47 | 251 | 1.0 | 6.0 | 0.00 | 0.00 | 0.00 | 54 | 1016.2 |
| 20260502193527 | 47 | 231 | 1.0 | 9.0 | 0.00 | 0.00 | 0.00 | 54 | 1016.2 |
| 20260502193007 | 48 | 217 | 1.0 | 7.0 | 0.00 | 0.00 | 0.00 | 55 | 1016.2 |
| 20260502192552 | 48 | 287 | 0.0 | 7.0 | 0.00 | 0.00 | 0.00 | 55 | 1016.2 |
| 20260502192031 | 49 | 318 | 1.0 | 9.0 | 0.00 | 0.00 | 0.00 | 54 | 1016.2 |
| 20260502191519 | 49 | 307 | 2.0 | 9.0 | 0.00 | 0.00 | 0.00 | 57 | 1016.3 |
| 20260502191057 | 48 | 332 | 1.0 | 9.0 | 0.00 | 0.00 | 0.00 | 57 | 1016.2 |
| 20260502190535 | 48 | 291 | 1.0 | 9.0 | 0.00 | 0.00 | 0.00 | 57 | 1016.2 |
| 20260502190118 | 47 | 283 | 1.0 | 12.0 | 0.00 | 0.00 | 0.00 | 57 | 1016.3 |
| 20260502185546 | 47 | 292 | 4.0 | 12.0 | 0.00 | 0.00 | 0.00 | 57 | 1016.3 |
| 20260502185022 | 47 | 238 | 4.0 | 8.0 | 0.00 | 0.00 | 0.00 | 58 | 1016.3 |
| 20260502184501 | 47 | 295 | 2.0 | 8.0 | 0.00 | 0.00 | 0.00 | 57 | 1016.4 |
| 20260502184045 | 47 | 309 | 2.0 | 11.0 | 0.00 | 0.00 | 0.00 | 58 | 1016.3 |
| 20260502183526 | 47 | 299 | 4.0 | 8.0 | 0.00 | 0.00 | 0.00 | 59 | 1016.4 |
| 20260502183005 | 47 | 302 | 2.0 | 10.0 | 0.00 | 0.00 | 0.00 | 60 | 1016.4 |
| 20260502182548 | 47 | 292 | 4.0 | 10.0 | 0.00 | 0.00 | 0.00 | 58 | 1016.4 |
| 20260502182029 | 48 | 285 | 3.0 | 6.0 | 0.00 | 0.00 | 0.00 | 56 | 1016.4 |
| 20260502181509 | 48 | 23 | 0.0 | 6.0 | 0.00 | 0.00 | 0.00 | 60 | 1016.4 |
| 20260502181053 | 47 | 23 | 0.0 | 8.0 | 0.00 | 0.00 | 0.00 | 61 | 1016.4 |
| 20260502180534 | 47 | 50 | 0.0 | 8.0 | 0.00 | 0.00 | 0.00 | 62 | 1016.4 |
| 20260502180118 | 47 | 291 | 1.0 | 7.0 | 0.00 | 0.00 | 0.00 | 61 | 1016.5 |
| 20260502170113 | 45 | 288 | 0.0 | 6.0 | 0.00 | 0.00 | 0.00 | 66 | 1016.5 |
| 20260502164039 | 43 | 307 | 0.0 | 9.0 | 0.00 | 0.00 | 0.00 | 69 | 1016.7 |
| 20260502163518 | 43 | 282 | 2.0 | 16.0 | 0.00 | 0.00 | 0.00 | 68 | 1016.8 |
| 20260502163112 | 43 | 276 | 2.0 | 16.0 | 0.00 | 0.00 | 0.00 | 69 | 1016.8 |
| 20260502162541 | 43 | 288 | 2.0 | 10.0 | 0.00 | 0.00 | 0.00 | 68 | 1016.9 |
| 20260502162022 | 43 | 284 | 6.0 | 10.0 | 0.00 | 0.00 | 0.00 | 67 | 1016.7 |
| 20260502161501 | 43 | 264 | 5.0 | 9.0 | 0.00 | 0.00 | 0.00 | 69 | 1016.7 |
| 20260502161045 | 43 | 304 | 0.0 | 10.0 | 0.00 | 0.00 | 0.00 | 68 | 1016.7 |
| 20260502160528 | 43 | 267 | 5.0 | 10.0 | 0.00 | 0.00 | 0.00 | 71 | 1016.8 |
| 20260502160109 | 42 | 289 | 2.0 | 9.0 | 0.00 | 0.00 | 0.00 | 69 | 1016.8 |
| 20260502152015 | 43 | 291 | 2.0 | 9.0 | 0.00 | 0.00 | 0.00 | 66 | 1016.7 |
| 20260502151600 | 43 | 321 | 3.0 | 13.0 | 0.00 | 0.00 | 0.00 | 66 | 1016.6 |
| 20260502151041 | 43 | 279 | 1.0 | 8.0 | 0.00 | 0.00 | 0.00 | 70 | 1016.6 |
| 20260502150521 | 42 | 344 | 2.0 | 9.0 | 0.00 | 0.00 | 0.00 | 67 | 1016.7 |
| 20260502150112 | 42 | 307 | 2.0 | 13.0 | 0.00 | 0.00 | 0.00 | 67 | 1016.8 |
| 20260502140104 | 42 | 269 | 3.0 | 8.0 | 0.00 | 0.00 | 0.00 | 62 | 1016.8 |
| 20260502130516 | 40 | 281 | 3.0 | 11.0 | 0.00 | 0.00 | 0.00 | 67 | 1016.9 |
| 20260502130110 | 40 | 345 | 2.0 | 11.0 | 0.00 | 0.00 | 0.00 | 68 | 1017.1 |
| 20260502123504 | 39 | 231 | 3.0 | 10.0 | 0.00 | 0.00 | 0.00 | 71 | 1017.3 |
| 20260502123055 | 39 | 298 | 4.0 | 10.0 | 0.00 | 0.00 | 0.00 | 72 | 1017.2 |
| 20260502122526 | 39 | 279 | 2.0 | 8.0 | 0.00 | 0.00 | 0.00 | 73 | 1017.2 |
| 20260502122006 | 39 | 303 | 3.0 | 9.0 | 0.00 | 0.00 | 0.00 | 73 | 1017.2 |
| 20260502121550 | 39 | 268 | 3.0 | 9.0 | 0.00 | 0.00 | 0.00 | 74 | 1017.2 |
| 20260502121030 | 39 | 302 | 2.0 | 9.0 | 0.00 | 0.00 | 0.00 | 74 | 1017.1 |
| 20260502120510 | 38 | 289 | 2.0 | 7.0 | 0.00 | 0.00 | 0.00 | 75 | 1017.2 |
| 20260502115516 | 38 | 270 | 3.0 | 5.0 | 0.00 | 0.00 | 0.00 | 77 | 1017.2 |
| 20260502115101 | 38 | 266 | 1.0 | 5.0 | 0.00 | 0.00 | 0.00 | 78 | 1017.2 |
| 20260502114540 | 37 | 273 | 1.0 | 5.0 | 0.00 | 0.00 | 0.00 | 78 | 1017.2 |
| 20260502114020 | 37 | 271 | 0.0 | 4.0 | 0.00 | 0.00 | 0.00 | 78 | 1017.2 |
| 20260502113606 | 37 | 271 | 1.0 | 4.0 | 0.00 | 0.00 | 0.00 | 79 | 1017.1 |
| 20260502113045 | 37 | 270 | 0.0 | 3.0 | 0.00 | 0.00 | 0.00 | 79 | 1017.2 |
| 20260502112527 | 36 | 270 | 0.0 | 6.0 | 0.00 | 0.00 | 0.00 | 79 | 1017.1 |
| 20260502112003 | 36 | 269 | 2.0 | 6.0 | 0.00 | 0.00 | 0.00 | 79 | 1017.1 |
| 20260502111552 | 36 | 295 | 1.0 | 7.0 | 0.00 | 0.00 | 0.00 | 80 | 1017.1 |
| 20260502111028 | 36 | 296 | 2.0 | 7.0 | 0.00 | 0.00 | 0.00 | 80 | 1017.1 |
| 20260502110508 | 35 | 252 | 0.0 | 4.0 | 0.00 | 0.00 | 0.00 | 81 | 1017.1 |
| 20260502110052 | 35 | 257 | 0.0 | 3.0 | 0.00 | 0.00 | 0.00 | 81 | 1017.1 |
| 20260502105511 | 35 | 257 | 0.0 | 2.0 | 0.00 | 0.00 | 0.00 | 81 | 1017.1 |
| 20260502105054 | 35 | 257 | 0.0 | 4.0 | 0.00 | 0.00 | 0.00 | 82 | 1017.1 |
| 20260502104535 | 34 | 257 | 0.0 | 2.0 | 0.00 | 0.00 | 0.00 | 82 | 1017.0 |
| 20260502104012 | 34 | 257 | 0.0 | 1.0 | 0.00 | 0.00 | 0.00 | 81 | 1016.8 |
| 20260502103556 | 34 | 257 | 0.0 | 0.0 | 0.00 | 0.00 | 0.00 | 81 | 1016.8 |
| 20260502103036 | 35 | 257 | 0.0 | 1.0 | 0.00 | 0.00 | 0.00 | 81 | 1016.7 |
| 20260502102517 | 35 | 257 | 0.0 | 4.0 | 0.00 | 0.00 | 0.00 | 81 | 1016.5 |
| 20260502102100 | 35 | 257 | 0.0 | 4.0 | 0.00 | 0.00 | 0.00 | 81 | 1016.5 |
| 20260502101543 | 35 | 257 | 0.0 | 2.0 | 0.00 | 0.00 | 0.00 | 81 | 1016.5 |
| 20260502101019 | 35 | 257 | 0.0 | 6.0 | 0.00 | 0.00 | 0.00 | 81 | 1016.4 |
| 20260502100604 | 35 | 257 | 1.0 | 6.0 | 0.00 | 0.00 | 0.00 | 81 | 1016.5 |
| 20260502091018 | 35 | 262 | 0.0 | 5.0 | 0.00 | 0.00 | 0.00 | 83 | 1016.4 |
| 20260502090557 | 35 | 263 | 0.0 | 4.0 | 0.00 | 0.00 | 0.00 | 83 | 1016.3 |
| 20260502071529 | 36 | 246 | 0.0 | 4.0 | 0.00 | 0.00 | 0.00 | 79 | 1016.0 |
| 20260502071009 | 36 | 246 | 0.0 | 5.0 | 0.00 | 0.00 | 0.00 | 79 | 1016.0 |
| 20260502070553 | 37 | 246 | 0.0 | 5.0 | 0.00 | 0.00 | 0.00 | 79 | 1016.0 |
| 20260502070037 | 37 | 275 | 1.0 | 5.0 | 0.00 | 0.00 | 0.00 | 79 | 1016.0 |
| 20260502065559 | 37 | 289 | 0.0 | 4.0 | 0.00 | 0.00 | 0.00 | 79 | 1015.9 |
| 20260502065040 | 37 | 289 | 0.0 | 4.0 | 0.00 | 0.00 | 0.00 | 79 | 1016.0 |
| 20260502064520 | 37 | 290 | 0.0 | 4.0 | 0.00 | 0.00 | 0.00 | 79 | 1016.1 |
| 20260502064101 | 37 | 290 | 0.0 | 4.0 | 0.00 | 0.00 | 0.00 | 79 | 1016.1 |
| 20260502063542 | 37 | 290 | 0.0 | 5.0 | 0.00 | 0.00 | 0.00 | 79 | 1016.2 |
| 20260502063023 | 37 | 290 | 0.0 | 8.0 | 0.00 | 0.00 | 0.00 | 79 | 1016.2 |
| 20260502062504 | 37 | 281 | 0.0 | 5.0 | 0.00 | 0.00 | 0.00 | 79 | 1016.2 |
| 20260502062046 | 37 | 263 | 0.0 | 5.0 | 0.00 | 0.00 | 0.00 | 79 | 1016.1 |
| 20260502061525 | 37 | 264 | 0.0 | 2.0 | 0.00 | 0.00 | 0.00 | 78 | 1016.2 |
| 20260502061005 | 37 | 264 | 0.0 | 2.0 | 0.00 | 0.00 | 0.00 | 78 | 1016.1 |
| 20260502060549 | 37 | 264 | 0.0 | 4.0 | 0.00 | 0.00 | 0.00 | 78 | 1016.1 |
| 20260502060012 | 37 | 265 | 0.0 | 2.0 | 0.00 | 0.00 | 0.00 | 78 | 1016.1 |
| 20260502055556 | 37 | 265 | 0.0 | 2.0 | 0.00 | 0.00 | 0.00 | 78 | 1016.0 |
| 20260502055036 | 37 | 265 | 0.0 | 2.0 | 0.00 | 0.00 | 0.00 | 78 | 1016.0 |
| 20260502054516 | 37 | 265 | 0.0 | 2.0 | 0.00 | 0.00 | 0.00 | 78 | 1016.1 |
| 20260502054059 | 37 | 265 | 0.0 | 2.0 | 0.00 | 0.00 | 0.00 | 78 | 1016.2 |
| 20260502053540 | 38 | 265 | 0.0 | 2.0 | 0.00 | 0.00 | 0.00 | 78 | 1016.1 |
| 20260502053020 | 38 | 271 | 0.0 | 0.0 | 0.00 | 0.00 | 0.00 | 78 | 1016.2 |
| 20260502052607 | 38 | 271 | 0.0 | 1.0 | 0.00 | 0.00 | 0.00 | 77 | 1016.2 |
| 20260502052047 | 38 | 271 | 0.0 | 2.0 | 0.00 | 0.00 | 0.00 | 77 | 1016.1 |
| 20260502051522 | 38 | 271 | 0.0 | 2.0 | 0.00 | 0.00 | 0.00 | 77 | 1016.0 |
| 20260502051003 | 38 | 271 | 0.0 | 2.0 | 0.00 | 0.00 | 0.00 | 77 | 1016.0 |
| 20260502050546 | 38 | 271 | 0.0 | 1.0 | 0.00 | 0.00 | 0.00 | 76 | 1016.0 |
| 20260502050003 | 38 | 271 | 0.0 | 4.0 | 0.00 | 0.00 | 0.00 | 76 | 1015.7 |
| 20260502045547 | 38 | 271 | 0.0 | 4.0 | 0.00 | 0.00 | 0.00 | 76 | 1015.8 |
| 20260502045027 | 39 | 271 | 0.0 | 1.0 | 0.00 | 0.00 | 0.00 | 76 | 1015.8 |
| 20260502044508 | 39 | 271 | 0.0 | 4.0 | 0.00 | 0.00 | 0.00 | 76 | 1015.7 |
| 20260502044053 | 39 | 271 | 1.0 | 4.0 | 0.00 | 0.00 | 0.00 | 75 | 1015.7 |
| 20260502043531 | 39 | 271 | 0.0 | 2.0 | 0.00 | 0.00 | 0.00 | 75 | 1015.6 |
| 20260502043011 | 39 | 271 | 0.0 | 4.0 | 0.00 | 0.00 | 0.00 | 74 | 1015.4 |
| 20260502042555 | 39 | 271 | 1.0 | 4.0 | 0.00 | 0.00 | 0.00 | 74 | 1015.5 |
| 20260502042036 | 40 | 271 | 0.0 | 2.0 | 0.00 | 0.00 | 0.00 | 73 | 1015.4 |
| 20260502041518 | 40 | 271 | 0.0 | 8.0 | 0.00 | 0.00 | 0.00 | 73 | 1015.5 |
| 20260502041058 | 40 | 271 | 0.0 | 8.0 | 0.00 | 0.00 | 0.00 | 72 | 1015.5 |
| 20260502040538 | 40 | 279 | 0.0 | 6.0 | 0.00 | 0.00 | 0.00 | 72 | 1015.4 |
| 20260502040002 | 40 | 275 | 0.0 | 7.0 | 0.00 | 0.00 | 0.00 | 71 | 1015.4 |
| 20260502035546 | 40 | 272 | 1.0 | 7.0 | 0.00 | 0.00 | 0.00 | 71 | 1015.4 |
| 20260502035025 | 41 | 296 | 1.0 | 6.0 | 0.00 | 0.00 | 0.00 | 71 | 1015.4 |
| 20260502034505 | 41 | 288 | 1.0 | 9.0 | 0.00 | 0.00 | 0.00 | 71 | 1015.4 |
| 20260502034049 | 41 | 273 | 2.0 | 11.0 | 0.00 | 0.00 | 0.00 | 71 | 1015.5 |
| 20260502033530 | 41 | 301 | 0.0 | 11.0 | 0.00 | 0.00 | 0.00 | 70 | 1015.5 |
| 20260502033012 | 42 | 275 | 0.0 | 10.0 | 0.00 | 0.00 | 0.00 | 70 | 1015.4 |